Location: ??????
(56.0120°N, 39.1740°E)
Time: 21:36:01
(UTC+00:00)

Okean 1 Rocket - Pass Details

Date: 14 April 2026
Orbit: 601 x 625 km, 82.5° (Epoch: 16 May)

Event Time Altitude Azimuth Distance (km) Brightness Sun altitude
Exits shadow 20:16:46 27° 79° (E) 1,184 4.4 -22.9°
Drops below altitude 10° 20:20:04 10° 31° (NNE) 1,968 6.2 -23.0°
Sets 20:22:32 0° 19° (NNE) 2,881 7.3 -23.1°
